Location: Pabrico
(37.5827°N, 122.0063°W)
Time: 23:13:09
(UTC+00:00)

Cosmos 1151 Rocket - Pass Details

Date: 13 April 2024
Orbit: 588 x 611 km, 82.5° (Epoch: 21 May)

Event Time Altitude Azimuth Distance (km) Brightness Sun altitude
Exits shadow 12:10:07 27° 278° (W) 1,175 4.0 -16.7°
Maximum altitude 12:10:22 27° 284° (WNW) 1,171 4.1 -16.6°
Drops below altitude 10° 12:14:02 10° 342° (NNW) 1,952 5.7 -16.0°
Sets 12:16:32 0° 355° (N) 2,864 6.7 -15.5°
